#timestamp,LO_Frequency,Hit,StdDev 
1589662815.6,286047000.2,P
1589662835.5,286047001.6,N
1589662855.3,286047002.3,N
1589662875.1,286046998.4,N
1589662895.9,286046998.6,N
1589662915.7,286047001.0,N
1589662935.5,286046998.5,N
1589662955.4,286046998.3,N
1589662975.2,286046996.5,N
1589662995.0,286046997.1,N
1589662996.0,286046997.1,N
1589663015.8,286046997.2,N
1589663035.6,286046996.8,N
1589663055.5,286046999.2,N
1589663075.3,286046998.4,N
1589663095.1,286047000.9,N
1589663115.9,286047000.4,N
1589663135.7,286047000.6,N
1589663155.5,286046998.9,N
1589663175.4,286046998.6,N
1589663195.2,286047000.3,N
1589663215.1,286047000.8,N
1589663216.0,286047000.8,N
1589663235.8,286046998.5,N
1589663255.6,286046996.6,N
1589663275.5,286046996.9,N
1589663295.3,286046999.6,N
1589663315.1,286046997.6,N
1589663335.9,286046996.2,N
1589663355.7,286046996.2,N
1589663375.6,286046998.0,N
1589663395.4,286046997.7,N
1589663415.2,286046995.0,Y
1589663435.1,286046998.9,P
1589663436.0,286046998.9,P
1589663455.8,286046997.3,P
1589663475.7,286046996.9,Y
1589663495.5,286046998.6,P
1589663515.3,286046998.3,P
1589663535.2,286047000.8,P
1589663555.0,286047001.1,N
1589663555.9,286047001.1,N
1589663575.7,286047001.5,N
1589663595.6,286047004.4,Y
1589663615.4,286047001.9,P
1589663635.3,286047002.6,N
1589663655.1,286047001.6,N
1589663675.8,286047001.8,N
1589663695.7,286047002.1,N
1589663715.5,286046999.8,N
1589663735.4,286047002.8,N
1589663755.2,286047002.4,N
1589663775.0,286047001.4,N
1589663775.9,286047001.4,N
1589663795.8,286047002.8,N
1589663815.6,286047004.4,Y
1589663835.5,286047000.4,P
1589663855.3,286046998.1,N
1589663875.1,286046998.6,N
1589663895.9,286046998.2,N
1589663915.7,286046997.1,N
1589663935.5,286046997.8,N
1589663955.4,286046997.2,N
1589663975.2,286046997.1,N
1589663995.0,286046998.1,N
1589663995.9,286046998.1,N
1589664015.8,286047001.2,N
1589664035.6,286047001.0,N
1589664055.5,286046999.7,N
1589664075.3,286047000.3,N
1589664095.1,286047000.1,N
1589664115.9,286046998.7,N
1589664135.7,286046998.2,N
1589664155.5,286046999.7,N
1589664175.4,286047000.6,N
1589664195.2,286047000.4,N
1589664215.1,286047000.0,N
1589664216.0,286047000.0,N
1589664235.8,286046999.9,N
1589664255.6,286047001.9,N
1589664275.5,286047002.5,N
1589664295.3,286047000.4,N
1589664315.1,286047000.9,N
1589664335.9,286047001.7,N
1589664355.7,286047003.3,N
1589664375.5,286047004.3,N
1589664395.4,286047002.0,N
1589664415.2,286047003.7,N
1589664435.1,286047004.4,N
1589664436.0,286047004.4,N
1589664455.8,286047003.7,N
1589664475.6,286047003.3,N
1589664495.5,286047003.4,N
1589664515.3,286047003.9,N
1589664535.1,286047003.6,N
1589664555.9,286047003.4,N
1589664575.7,286047003.1,N
1589664595.6,286047001.3,N
1589664615.4,286047001.4,N
1589664635.2,286047001.7,N
1589664655.1,286047001.5,N
1589664656.0,286047001.5,N
1589664675.8,286047002.2,N
1589664695.6,286047001.6,N
1589664715.5,286047003.7,N
1589664735.3,286047003.3,N
1589664755.2,286047005.0,Y
1589664775.9,286047003.5,P
1589664795.7,286047005.6,P
1589664815.6,286047005.0,P
1589664835.4,286047006.7,Y
1589664855.2,286047000.6,P
1589664875.1,286046998.3,N
1589664876.0,286046998.3,N
1589664895.8,286046999.4,N
1589664915.7,286046996.9,N
1589664935.5,286046999.3,N
1589664955.3,286046996.7,N
1589664975.2,286046997.9,N
1589664995.0,286046997.6,N
1589664995.9,286046997.6,N
1589665015.8,286046997.5,N
1589665035.6,286046995.8,N
1589665055.4,286046995.1,N
1589665075.3,286046997.6,N
1589665095.1,286046998.8,N
1589665096.0,286046998.8,N
1589665115.8,286046997.1,N
1589665135.7,286046997.6,N
1589665155.5,286046996.7,N
1589665175.3,286046999.1,N
1589665195.2,286046997.1,N
1589665215.0,286046996.9,N
1589665215.9,286046996.9,N
1589665235.8,286046996.6,N
1589665255.6,286046997.2,N
1589665275.4,286046997.7,N
1589665295.3,286046997.7,N
1589665315.1,286046997.8,N
1589665335.8,286046996.1,N
1589665355.7,286046995.4,N
1589665375.5,286046993.3,Y
1589665395.4,286046996.6,P
1589665415.2,286046999.3,N
1589665435.0,286046996.6,P
1589665435.9,286046996.6,Y
1589665455.8,286047000.4,P
1589665475.6,286047001.0,N
1589665495.5,286046999.0,N
1589665515.3,286047000.3,N
1589665535.1,286047001.8,N
1589665555.9,286047002.1,N
1589665575.7,286047001.7,N
1589665595.5,286047004.3,N
1589665615.4,286047003.8,N
1589665635.2,286047004.2,N
1589665655.0,286047003.8,N
1589665656.0,286047003.8,N
1589665675.8,286047003.0,N
1589665695.6,286047003.6,N
1589665715.5,286047001.3,N
1589665735.3,286047002.3,N
1589665755.1,286047002.6,N
1589665775.9,286047001.4,N
1589665795.7,286047003.2,N
1589665815.5,286047004.4,N
1589665835.4,286047002.5,N
1589665855.2,286046999.9,N
1589665875.1,286046999.9,N
1589665876.0,286046999.9,N
1589665895.8,286047002.7,N
1589665915.6,286047000.7,N
1589665935.5,286046998.1,N
1589665955.3,286046998.3,N
1589665975.2,286047000.9,N
1589665995.9,286046999.9,N
1589666015.7,286047002.2,N
1589666035.6,286047002.1,N
1589666055.4,286047000.4,N
1589666075.2,286046998.1,N
1589666095.1,286046999.9,N
1589666096.0,286046999.9,N
1589666115.8,286046999.9,N
1589666135.7,286047002.6,N
1589666155.5,286047000.3,N
1589666175.3,286047001.9,N
1589666195.2,286047000.2,N
1589666215.0,286046999.1,N
1589666215.9,286046999.1,N
1589666235.7,286046998.9,N
1589666255.6,286046998.9,N
1589666275.4,286046998.1,N
1589666295.3,286046998.5,N
1589666315.1,286046998.1,N
1589666316.0,286046998.1,N
1589666335.8,286047001.2,N
1589666355.7,286047000.9,N
1589666375.5,286047000.7,N
1589666395.3,286047000.8,N
